This demonstration page uses our WeatherBlox Daily Observations layout. Learn more.

Left ArrowRight Arrow

39.08367, -84.50855

Hourly Observations for May 11, 2022

Temp ( °F °C ) Dew Point ( °F °C ) Humidity (%) Winds ( mph kmh ) Pressure ( in mb ) Visibility ( mi km ) Precip ( " mm )
12:53 am 00:53 Clear with Mist and Fog 64 17.8 64 17.8 100 100 Calm 30.15 1021 6 10 0.00 0.00
1:53 am 01:53 Clear with Mist and Fog 62 16.7 62 16.7 100 100 Calm 30.16 1021 5 8 0.00 0.00
2:35 am 02:35 Clear with Mist and Fog 63 17.2 63 17.2 100 100 Calm 30.17 1022 2 3 0.00 0.00
2:42 am 02:42 Clear with Fog 63 17.2 63 17.2 100 100 Calm 30.17 1022 0 0 0.00 0.00
2:53 am 02:53 Partly Cloudy with Mist and Fog 62 16.7 62 16.7 100 100 Calm 30.17 1022 1 1 0.00 0.00
2:57 am 02:57 Partly Cloudy with Mist and Fog 62 16.7 62 16.7 100 100 Calm 30.17 1022 2 3 0.00 0.00
3:05 am 03:05 Mostly Cloudy with Mist and Fog 62 16.7 62 16.7 100 100 Calm 30.17 1022 2 2 0.00 0.00
3:10 am 03:10 Mostly Cloudy with Mist and Fog 62 16.7 62 16.7 100 100 Calm 30.17 1022 3 5 0.00 0.00
3:53 am 03:53 Cloudy with Mist and Fog 63 17.2 63 17.2 100 100 Calm 30.16 1021 6 10 0.00 0.00
4:53 am 04:53 Cloudy with Mist and Fog 65 18.3 64 17.8 97 97 Calm 30.16 1021 6 10 0.00 0.00
5:53 am 05:53 Cloudy 65 18.3 65 18.3 100 100 Calm 30.16 1021 7 11 0.00 0.00
6:53 am 06:53 Mostly Cloudy 65 18.3 65 18.3 100 100 Calm 30.18 1022 10 16 0.00 0.00
7:53 am 07:53 Mostly Cloudy 67 19.4 66 18.9 97 97 Calm 30.19 1022 10 16 0.00 0.00
8:53 am 08:53 Mostly Cloudy 70 21.1 66 18.9 87 87 Calm 30.20 1023 10 16 0.00 0.00
9:53 am 09:53 Sunny 76 24.4 61 16.1 60 60 Calm 30.22 1023 10 16 0.00 0.00
10:53 am 10:53 Mostly Cloudy 79 26.1 58 14.4 49 49 Calm 30.21 1023 10 16 0.00 0.00
11:53 am 11:53 Partly Cloudy 80 26.7 60 15.6 51 51 SW 5 7 30.19 1023 10 16 0.00 0.00
12:53 pm 12:53 Sunny 84 28.9 64 17.8 51 51 Calm 30.19 1022 10 16 0.00 0.00
1:53 pm 13:53 Partly Cloudy 86 30 65 18.3 49 49 NE 5 7 30.19 1022 10 16 0.00 0.00
2:53 pm 14:53 Partly Cloudy 86 30 65 18.3 49 49 ENE 10 17 30.16 1021 10 16 0.00 0.00
3:53 pm 15:53 Mostly Sunny 87 30.6 65 18.3 48 48 ENE 10 17 30.15 1021 10 16 0.00 0.00
4:53 pm 16:53 Mostly Sunny 87 30.6 64 17.8 46 46 ENE 10 17 30.14 1021 10 16 0.00 0.00
5:53 pm 17:53 Sunny 85 29.4 61 16.1 45 45 ENE 7 11 30.13 1020 10 16 0.00 0.00
6:53 pm 18:53 Sunny 83 28.3 59 15 44 44 ENE 6 9 30.12 1020 10 16 0.00 0.00
7:53 pm 19:53 Sunny 78 25.6 58 14.4 50 50 ENE 6 9 30.12 1020 10 16 0.00 0.00
8:53 pm 20:53 Clear 70 21.1 60 15.6 71 71 Calm 30.13 1020 10 16 0.00 0.00
9:53 pm 21:53 Clear 63 17.2 56 13.3 78 78 Calm 30.13 1020 10 16 0.00 0.00
10:53 pm 22:53 Clear 60 15.6 53 11.7 78 78 Calm 30.14 1021 10 16 0.00 0.00
11:53 pm 23:53 Clear 58 14.4 54 12.2 87 87 Calm 30.15 1021 10 16 0.00 0.00

Powered by AerisWeather